Weather Data

Pearl Creek Farm: 8878 N Farm Road 75, Walnut Grove MO 65770

<== Previous Day (Saturday 12 Sep 2015) | Next Day (Monday 14 Sep 2015) ==>

Summary Precipitation Data For Sunday 13 September 2015

ElementValueUnits
Precipitation0"
Notes(none)
SourcePearl Creek Farm

Summary Temperature Data For Sunday 13 September 2015

ElementValueUnits
High Temperature76 oF
Low Temperature50 oF
Average Temperature62 oF
High Humidity91 %
Low Humidity62 %
Average Humidity78 %
SourcePearl Creek Farm

Detail Temperature Data For Sunday 13 September 2015

Date / TimeTemp (F)RH (%)Dew Pt (F)Report Date / TimeSource
2015-09-13 00:00:00 54 86 49.9 2015-11-18 13:17:03 Pearl Creek Farm
2015-09-13 00:30:00 53 86 48.9 2015-11-18 13:17:03 Pearl Creek Farm
2015-09-13 01:00:00 53 87 49.1 2015-11-18 13:17:03 Pearl Creek Farm
2015-09-13 01:30:00 52 87 48.1 2015-11-18 13:17:03 Pearl Creek Farm
2015-09-13 02:00:00 52 87 48.3 2015-11-18 13:17:03 Pearl Creek Farm
2015-09-13 02:30:00 52 87 48.3 2015-11-18 13:17:03 Pearl Creek Farm
2015-09-13 03:00:00 51 88 47.6 2015-11-18 13:17:03 Pearl Creek Farm
2015-09-13 03:30:00 51 89 47.7 2015-11-18 13:17:03 Pearl Creek Farm
2015-09-13 04:00:00 50 88 46.6 2015-11-18 13:17:03 Pearl Creek Farm
2015-09-13 04:30:00 50 88 46.4 2015-11-18 13:17:03 Pearl Creek Farm
2015-09-13 05:00:00 50 89 46.7 2015-11-18 13:17:03 Pearl Creek Farm
2015-09-13 05:30:00 50 90 47.0 2015-11-18 13:17:03 Pearl Creek Farm
2015-09-13 06:00:00 50 90 47.0 2015-11-18 13:17:03 Pearl Creek Farm
2015-09-13 06:30:00 51 90 48.2 2015-11-18 13:17:03 Pearl Creek Farm
2015-09-13 07:00:00 50 90 47.0 2015-11-18 13:17:03 Pearl Creek Farm
2015-09-13 07:30:00 51 91 48.3 2015-11-18 13:17:03 Pearl Creek Farm
2015-09-13 08:00:00 52 91 49.5 2015-11-18 13:17:03 Pearl Creek Farm
2015-09-13 08:30:00 54 91 51.4 2015-11-18 13:17:03 Pearl Creek Farm
2015-09-13 09:00:00 56 88 52.3 2015-11-18 13:17:03 Pearl Creek Farm
2015-09-13 09:30:00 58 84 53.2 2015-11-18 13:17:03 Pearl Creek Farm
2015-09-13 10:00:00 60 81 54.2 2015-11-18 13:17:03 Pearl Creek Farm
2015-09-13 10:30:00 62 76 54.4 2015-11-18 13:17:03 Pearl Creek Farm
2015-09-13 11:00:00 64 72 54.8 2015-11-18 13:17:03 Pearl Creek Farm
2015-09-13 11:30:00 65 72 55.8 2015-11-18 13:17:03 Pearl Creek Farm
2015-09-13 12:00:00 67 72 57.5 2015-11-18 13:17:03 Pearl Creek Farm
2015-09-13 12:30:00 68 69 57.5 2015-11-18 13:17:03 Pearl Creek Farm
2015-09-13 13:00:00 70 67 58.5 2015-11-18 13:17:03 Pearl Creek Farm
2015-09-13 13:30:00 71 65 58.6 2015-11-18 13:17:03 Pearl Creek Farm
2015-09-13 14:00:00 73 62 59.2 2015-11-18 13:17:03 Pearl Creek Farm
2015-09-13 14:30:00 74 63 60.4 2015-11-18 13:17:03 Pearl Creek Farm
2015-09-13 15:00:00 75 63 61.3 2015-11-18 13:17:03 Pearl Creek Farm
2015-09-13 15:30:00 76 63 62.3 2015-11-18 13:17:03 Pearl Creek Farm
2015-09-13 16:00:00 76 63 62.5 2015-11-18 13:17:03 Pearl Creek Farm
2015-09-13 16:30:00 75 63 61.3 2015-11-18 13:17:03 Pearl Creek Farm
2015-09-13 17:00:00 75 63 61.6 2015-11-18 13:17:03 Pearl Creek Farm
2015-09-13 17:30:00 74 64 61.1 2015-11-18 13:17:03 Pearl Creek Farm
2015-09-13 18:00:00 73 66 60.8 2015-11-18 13:17:03 Pearl Creek Farm
2015-09-13 18:30:00 73 68 61.8 2015-11-18 13:17:03 Pearl Creek Farm
2015-09-13 19:00:00 71 70 60.5 2015-11-18 13:17:03 Pearl Creek Farm
2015-09-13 19:30:00 69 71 59.2 2015-11-18 13:17:03 Pearl Creek Farm
2015-09-13 20:00:00 67 74 58.3 2015-11-18 13:17:03 Pearl Creek Farm
2015-09-13 20:30:00 66 75 57.7 2015-11-18 13:17:03 Pearl Creek Farm
2015-09-13 21:00:00 65 76 57.1 2015-11-18 13:17:03 Pearl Creek Farm
2015-09-13 21:30:00 64 77 56.7 2015-11-18 13:17:03 Pearl Creek Farm
2015-09-13 22:00:00 64 79 57.2 2015-11-18 13:17:03 Pearl Creek Farm
2015-09-13 22:30:00 64 79 57.2 2015-11-18 13:17:03 Pearl Creek Farm
2015-09-13 23:00:00 64 79 57.4 2015-11-18 13:17:03 Pearl Creek Farm
2015-09-13 23:30:00 63 80 56.7 2015-11-18 13:17:03 Pearl Creek Farm

A total of 48 rows are displayed.